Location: Franzen
(48.6167°N, 15.3833°E)
Time: 03:03:13
(UTC+00:00)

Transit 2A - Pass Details

Date: 08 August 2021
Orbit: 594 x 964 km, 66.7° (Epoch: 27 September)

Event Time Altitude Azimuth Distance (km) Brightness Sun altitude
Rises 11:38:39 0° 325° (NW) 3,232 9.0 56.6°
Reaches altitude 10° 11:40:57 10° 327° (NNW) 2,358 8.4 56.5°
Maximum altitude 11:46:26 75° 53° (NE) 883 7.1 56.2°
Drops below altitude 10° 11:52:26 10° 139° (SE) 2,583 9.1 55.9°
Sets 11:55:03 0° 141° (SE) 3,562 9.7 55.7°
